EW5860 Weather Reports


time (UTC)temp
F
wind
direction
speed
knots
gust
knots
rain 1hr
in
rain 24hr
in
rain mn
in
humidity
%
barometer
mb
20260506024530 71 202 3.5 10.4 0.00 0.00 0.00 54 1009.2
20260506023028 71 119 2.6 7.0 0.00 0.00 0.00 53 1009.2
20260506021528 71 217 3.5 8.7 0.00 0.00 0.00 52 1009.2
20260506020027 72 250 1.7 8.7 0.00 0.00 0.00 50 1009.1
20260506014526 73 238 5.2 11.3 0.00 0.00 0.00 49 1009.0
20260506013037 73 206 4.3 10.4 0.00 0.00 0.00 48 1009.0
20260506011527 73 254 1.7 8.7 0.00 0.00 0.00 46 1008.8
20260506010026 74 209 1.7 7.0 0.00 0.00 0.00 45 1008.7
20260506004524 74 242 1.7 7.0 0.00 0.00 0.00 44 1008.5
20260506003024 75 241 0.9 7.0 0.00 0.00 0.00 43 1008.4
20260506001523 76 180 6.1 12.2 0.00 0.00 0.00 42 1008.3
20260506000023 76 173 4.3 8.7 0.00 0.00 0.00 42 1008.1
20260505234522 76 230 1.7 7.0 0.00 0.00 0.00 41 1008.1
20260505233027 77 229 1.7 10.4 0.00 0.00 0.00 41 1007.8
20260505231523 77 211 3.5 7.0 0.00 0.00 0.00 41 1007.8
20260505230021 78 162 1.7 9.6 0.00 0.00 0.00 40 1007.8
20260505224520 78 231 5.2 12.2 0.00 0.00 0.00 38 1007.8
20260505223019 79 238 5.2 14.8 0.00 0.00 0.00 38 1007.9
20260505221519 80 114 7.8 15.6 0.00 0.00 0.00 36 1007.7
20260505220030 80 183 7.0 14.8 0.00 0.00 0.00 36 1007.7
20260505214522 80 217 7.0 16.5 0.00 0.00 0.00 37 1007.6
20260505213017 80 220 7.0 18.2 0.00 0.00 0.00 36 1007.7
20260505211517 80 193 3.5 18.2 0.00 0.00 0.00 37 1007.5
20260505210016 80 120 6.1 18.2 0.00 0.00 0.00 37 1007.5
20260505204515 80 219 6.1 16.5 0.00 0.00 0.00 37 1007.6
20260505203015 80 236 5.2 16.5 0.00 0.00 0.00 38 1007.7
20260505201512 80 217 7.8 14.8 0.00 0.00 0.00 37 1007.8
20260505200016 80 180 8.7 18.2 0.00 0.00 0.00 37 1008.1
20260505194511 80 238 7.0 16.5 0.00 0.00 0.00 37 1008.0
20260505193014 80 184 7.8 15.6 0.00 0.00 0.00 37 1008.1
20260505191521 80 165 5.2 13.9 0.00 0.00 0.00 37 1008.2
20260505190011 80 207 4.3 14.8 0.00 0.00 0.00 36 1008.3
20260505184508 81 180 3.5 15.6 0.00 0.00 0.00 39 1008.4
20260505183007 81 260 5.2 12.2 0.00 0.00 0.00 41 1008.4
20260505181505 80 213 5.2 16.5 0.00 0.00 0.00 41 1008.5
20260505180005 80 177 6.1 13.9 0.00 0.00 0.00 41 1008.9
20260505174505 80 264 7.0 15.6 0.00 0.00 0.00 37 1008.9
20260505173002 80 187 5.2 14.8 0.00 0.00 0.00 39 1008.9
20260505171501 80 172 7.8 16.5 0.00 0.00 0.00 35 1009.0
20260505170058 79 173 5.2 16.5 0.00 0.00 0.00 38 1009.3
20260505164600 79 176 5.2 12.2 0.00 0.00 0.00 40 1009.6
20260505163059 79 178 7.8 13.9 0.00 0.00 0.00 41 1009.8
20260505161602 79 186 5.2 13.9 0.00 0.00 0.00 42 1009.7
20260505153050 78 169 5.2 8.7 0.00 0.00 0.00 43 1010.0
20260505151547 77 251 6.1 12.2 0.00 0.00 0.00 44 1010.1
20260505124517 66 232 5.2 10.4 0.00 0.00 0.00 60 1011.1
20260505123013 65 199 4.3 7.8 0.00 0.00 0.00 62 1011.0
20260505121526 64 211 2.6 7.8 0.00 0.00 0.00 64 1010.9
20260505120007 63 200 7.0 13.9 0.00 0.00 0.00 65 1010.5
20260505114506 62 190 5.2 8.7 0.00 0.00 0.00 66 1010.5
20260505113005 61 184 4.3 9.6 0.00 0.00 0.00 67 1010.5
20260505111504 61 215 3.5 9.6 0.00 0.00 0.00 67 1010.4
20260505101559 60 213 3.5 10.4 0.00 0.00 0.00 70 1010.0
20260505100055 60 193 5.2 9.6 0.00 0.00 0.00 69 1009.9
20260505094614 60 296 4.3 10.4 0.00 0.00 0.00 70 1009.9
20260505093057 60 196 4.3 10.4 0.00 0.00 0.00 70 1009.8
20260505091601 60 215 4.3 9.6 0.00 0.00 0.00 70 1009.7
20260505090053 60 261 4.3 8.7 0.00 0.00 0.00 69 1009.7
20260505084555 61 207 3.5 7.8 0.00 0.00 0.00 69 1009.6
20260505083059 61 200 3.5 6.1 0.00 0.00 0.00 68 1009.7
20260505081556 61 230 1.7 4.3 0.00 0.00 0.00 67 1009.7
20260505080050 61 187 1.7 8.7 0.00 0.00 0.00 66 1009.6
20260505074545 62 230 3.5 9.6 0.00 0.00 0.00 65 1009.7
20260505073046 62 207 4.3 8.7 0.00 0.00 0.00 65 1009.6
20260505071548 62 202 5.2 10.4 0.00 0.00 0.00 65 1009.7
20260505070041 62 240 6.1 13.0 0.00 0.00 0.00 64 1009.8
20260505064541 62 196 6.1 10.4 0.00 0.00 0.00 64 1009.7
20260505063039 62 217 4.3 10.4 0.00 0.00 0.00 64 1009.7
20260505061537 62 207 7.8 12.2 0.00 0.00 0.00 63 1009.7
20260505060037 62 185 6.1 10.4 0.00 0.00 0.00 62 1009.8
20260505054531 62 213 2.6 12.2 0.00 0.00 0.00 61 1009.7
20260505053034 62 204 5.2 9.6 0.00 0.00 0.00 61 1009.7
20260505051528 62 187 4.3 10.4 0.00 0.00 0.00 59 1009.7
20260505041518 62 229 2.6 7.8 0.00 0.00 0.00 55 1009.8
20260505040016 63 161 1.7 7.0 0.00 0.00 0.00 53 1009.6
20260505034515 63 211 2.6 7.0 0.00 0.00 0.00 52 1009.5
20260505033017 63 216 1.7 6.1 0.00 0.00 0.00 52 1009.5
20260505031514 63 193 2.6 6.1 0.00 0.00 0.00 51 1009.5
20260505030014 63 194 1.7 7.8 0.00 0.00 0.00 51 1009.7